Regional Weather Roundup
Issued by NWS Albany, NY

Home | Current Version | Previous Version | Text Only | Print | Product List | Glossary On
Versions: 1 2 3 4 5 6 7 8 9 10 11 12 13 14 15 16 17 18 19 20 21 22 23 24 25 26 27
000
ASUS41 KALY 202310
RWRALY

NEW YORK STATE HOURLY WEATHER ROUNDUP
NATIONAL WEATHER SERVICE ALBANY NY
700 PM EDT SUN APR 20 2014

NOTE: "FAIR" INDICATES FEW OR NO CLOUDS BELOW 12,000 FEET WITH NO
SIGNIFICANT WEATHER AND/OR NO OBSTRUCTIONS TO VISIBILITY.

NYZ032-033-038>043-046>054-057>066-NYZ062>081-210000-
EAST


CITY           SKY/WX    TMP DP  RH WIND       PRES   REMARKS
ALBANY         PTCLDY    62  18  18 S8        30.30F
GLENS FALLS    CLEAR     62  19  19 S8        30.29F
POUGHKEEPSIE   CLEAR     59  22  24 S6        30.34F
NEWBURGH       CLEAR     57  25  28 SE12      30.36F
MONTGOMERY     CLEAR     58  24  27 S10       30.33F
WHITE PLAINS   CLEAR     49  27  42 SE8       30.39F
ISLIP          MOCLDY    48  25  40 SE8       30.40F
NEW YORK CITY  CLEAR     51  23  33 SE8       30.40F
CENTRAL PARK   CLEAR     51  25  36 S7        30.43F
$$

NYZ005>009-017-018-044>046-055-056-210000-
CENTRAL


CITY           SKY/WX    TMP DP  RH WIND       PRES   REMARKS
FULTON         PTCLDY    65  25  22 SE6       30.22F
SYRACUSE       PTCLDY    65  28  24 NE5       30.23F
ROME           CLEAR     65  20  17 S7        30.25F
ELMIRA         CLEAR     67  21  17 S9        30.23F
BINGHAMTON     CLEAR     62  25  24 S12       30.26F
MONTICELLO     CLEAR     57  23  26 MISG      30.33F
$$

NYZ026>034-041>043-210000-
NORTH


CITY           SKY/WX    TMP DP  RH WIND       PRES   REMARKS
WATERTOWN      PTCLDY    63  29  27 N3        30.22F
FORT DRUM      NOT AVBL
MASSENA        PTCLDY    56  28  34 NE6       30.24F
SARANAC LAKE   PTCLDY    58  11  15 W6        30.22F
PLATTSBURGH    MOCLDY    57  21  24 SE13      30.24F
$$

NYZ001>004-010>016-019>021-210000-
WEST


CITY           SKY/WX    TMP DP  RH WIND       PRES   REMARKS
NIAGARA FALLS  MOSUNNY   62  34  35 NE9       30.19F
BUFFALO        MOSUNNY   63  36  36 NE10      30.19F
DUNKIRK        SUNNY     60  23  24 N5        30.20F
JAMESTOWN      SUNNY     66  18  15 S8        30.20F
WELLSVILLE     CLEAR     65  13  13 S8        30.23F
ROCHESTER      PTCLDY    64  34  32 N8        30.19F
PENN YAN       CLEAR     67  25  20 S10       30.21F
$$

             KEY
       WCI = WIND CHILL INDEX
       VSB = VISIBILITY
       HX  = HEAT INDEX
$$



USA.gov is the U.S. government's official web portal to all federal, state and local government web resources and services.